Precipitable_Water
0.75 0.58 0.50 0.57 0.61 0.58 0.53 0.46 0.41 0.45 0.53 0.52 0.46 0.42 0.45 0.52 0.52 0.51 0.52 0.52 0.52 0.54 0.58 0.60 0.66 0.74 0.83 0.96 1.00 0.89 0.88 0.95 1.03 1.12 1.07 1.01 0.93 0.95 0.90 0.90 0.91 0.91 0.83 0.76
0.65 0.46 0.61 0.63 0.63 0.58 0.54 0.48 0.41 0.50 0.54 0.54 0.49 0.42 0.44 0.51 0.51 0.53 0.53 0.53 0.55 0.58 0.58 0.60 0.62 0.72 0.78 0.90 0.98 0.91 0.88 0.92 0.96 1.08 1.10 1.07 0.99 0.96 0.90 0.89 0.89 0.91 0.85 0.78
0.56 0.42 0.64 0.64 0.58 0.52 0.53 0.46 0.47 0.49 0.58 0.61 0.52 0.44 0.39 0.49 0.53 0.55 0.55 0.56 0.56 0.58 0.61 0.62 0.63 0.66 0.79 0.88 0.96 0.88 0.88 0.90 0.96 1.03 1.11 1.11 1.04 0.98 0.88 0.85 0.87 0.90 0.85 0.79
0.61 0.54 0.60 0.56 0.52 0.58 0.51 0.53 0.56 0.56 0.51 0.43 0.57 0.35 0.34 0.46 0.46 0.49 0.52 0.53 0.56 0.57 0.62 0.63 0.64 0.65 0.77 0.87 1.01 0.98 0.94 0.94 0.95 1.00 1.03 1.02 0.92 0.85 0.85 0.84 0.86 0.88 0.85 0.81
0.43 0.53 0.58 0.53 0.49 0.62 0.52 0.59 0.60 0.57 0.54 0.51 0.46 0.44 0.24 0.46 0.37 0.43 0.49 0.51 0.54 0.55 0.60 0.62 0.64 0.67 0.77 0.92 1.00 1.07 1.01 1.00 0.96 0.97 1.00 0.99 0.94 0.94 0.94 0.89 0.86 0.88 0.88 0.86
0.57 0.68 0.63 0.59 0.63 0.65 0.68 0.58 0.62 0.65 0.58 0.42 0.35 0.42 0.38 0.32 0.37 0.41 0.54 0.54 0.55 0.60 0.64 0.66 0.70 0.71 0.77 0.93 1.02 1.04 1.03 1.02 1.00 0.97 0.99 0.93 0.91 0.90 0.88 0.89 0.88 0.90 0.88 0.85
0.56 0.56 0.62 0.69 0.58 0.62 0.59 0.50 0.41 0.39 0.38 0.32 0.38 0.42 0.47 0.32 0.43 0.43 0.47 0.58 0.62 0.63 0.64 0.64 0.63 0.63 0.72 0.86 0.97 1.00 1.03 1.03 1.05 1.00 0.99 0.97 0.94 0.95 0.92 0.91 0.90 0.90 0.88 0.83
0.45 0.39 0.47 0.58 0.58 0.45 0.54 0.48 0.40 0.26 0.28 0.33 0.41 0.36 0.34 0.44 0.48 0.51 0.54 0.57 0.59 0.58 0.61 0.63 0.64 0.66 0.66 0.82 0.92 0.97 0.98 1.02 1.07 1.06 1.07 1.06 1.03 1.01 0.99 0.97 0.99 0.95 0.93 0.88
0.43 0.42 0.47 0.54 0.63 0.60 0.46 0.45 0.47 0.44 0.42 0.36 0.41 0.40 0.46 0.44 0.48 0.49 0.53 0.55 0.57 0.60 0.63 0.66 0.69 0.74 0.77 0.80 0.87 0.96 0.99 1.00 1.04 1.06 1.07 1.06 1.03 1.02 1.00 0.97 1.03 1.02 0.99 0.94
0.55 0.42 0.49 0.49 0.55 0.57 0.53 0.50 0.42 0.45 0.31 0.28 0.35 0.31 0.30 0.36 0.45 0.48 0.49 0.54 0.59 0.64 0.65 0.68 0.70 0.76 0.80 0.85 0.87 0.95 0.96 0.97 1.01 1.04 1.05 1.05 1.02 1.03 1.01 0.98 0.98 1.03 1.01 0.95
0.53 0.46 0.42 0.54 0.51 0.46 0.51 0.48 0.48 0.49 0.48 0.33 0.29 0.33 0.36 0.37 0.53 0.53 0.52 0.57 0.60 0.62 0.64 0.68 0.71 0.75 0.79 0.86 0.87 0.90 0.91 0.91 0.95 0.98 1.00 1.00 1.00 1.02 1.01 0.97 0.98 0.99 0.99 0.96
0.48 0.41 0.31 0.33 0.47 0.60 0.56 0.53 0.49 0.37 0.35 0.42 0.43 0.35 0.49 0.59 0.58 0.60 0.57 0.61 0.64 0.64 0.66 0.70 0.73 0.74 0.77 0.80 0.83 0.86 0.90 0.91 0.94 0.96 0.96 0.95 0.96 0.97 0.97 0.97 0.96 0.98 0.97 0.97
0.42 0.35 0.25 0.25 0.31 0.51 0.43 0.44 0.45 0.43 0.42 0.32 0.29 0.35 0.64 0.66 0.69 0.62 0.61 0.63 0.65 0.65 0.64 0.66 0.70 0.72 0.75 0.79 0.81 0.84 0.88 0.90 0.92 0.94 0.92 0.91 0.89 0.89 0.90 0.91 0.93 0.96 0.98 0.94
0.40 0.33 0.29 0.23 0.27 0.30 0.28 0.33 0.35 0.37 0.31 0.31 0.32 0.36 0.46 0.55 0.62 0.68 0.69 0.68 0.69 0.63 0.62 0.65 0.68 0.73 0.76 0.79 0.83 0.86 0.88 0.91 0.92 0.91 0.90 0.88 0.88 0.88 0.88 0.90 0.90 0.92 0.92 0.89
0.35 0.27 0.28 0.26 0.26 0.26 0.25 0.24 0.25 0.27 0.32 0.29 0.32 0.38 0.43 0.47 0.54 0.65 0.71 0.76 0.69 0.62 0.60 0.65 0.67 0.68 0.70 0.74 0.79 0.82 0.87 0.90 0.91 0.91 0.90 0.88 0.89 0.89 0.88 0.88 0.88 0.90 0.88 0.88
0.33 0.23 0.22 0.20 0.22 0.22 0.20 0.22 0.23 0.24 0.26 0.27 0.32 0.37 0.47 0.55 0.55 0.55 0.64 0.67 0.68 0.57 0.59 0.59 0.60 0.61 0.62 0.64 0.65 0.69 0.71 0.77 0.81 0.79 0.79 0.79 0.80 0.82 0.83 0.83 0.83 0.82 0.85 0.88
0.23 0.19 0.14 0.12 0.14 0.16 0.16 0.18 0.22 0.21 0.23 0.26 0.25 0.32 0.50 0.50 0.51 0.52 0.57 0.62 0.63 0.60 0.62 0.61 0.60 0.59 0.60 0.61 0.62 0.60 0.63 0.66 0.65 0.65 0.67 0.69 0.71 0.72 0.78 0.78 0.75 0.76 0.78 0.81
0.20 0.18 0.17 0.12 0.13 0.09 0.11 0.17 0.20 0.20 0.22 0.29 0.33 0.37 0.47 0.52 0.56 0.60 0.65 0.64 0.59 0.55 0.57 0.56 0.56 0.54 0.56 0.59 0.57 0.59 0.58 0.58 0.57 0.58 0.58 0.58 0.58 0.59 0.63 0.65 0.71 0.76 0.76 0.74
0.22 0.21 0.17 0.13 0.11 0.12 0.12 0.14 0.20 0.24 0.23 0.31 0.32 0.38 0.47 0.55 0.55 0.55 0.63 0.63 0.57 0.57 0.58 0.57 0.55 0.54 0.52 0.53 0.55 0.53 0.50 0.50 0.50 0.48 0.50 0.51 0.50 0.51 0.53 0.54 0.58 0.62 0.74 0.74
0.30 0.33 0.23 0.18 0.12 0.09 0.21 0.29 0.37 0.34 0.18 0.28 0.36 0.40 0.41 0.54 0.41 0.47 0.56 0.56 0.56 0.59 0.56 0.52 0.53 0.51 0.50 0.50 0.49 0.47 0.47 0.49 0.47 0.47 0.48 0.49 0.47 0.46 0.45 0.50 0.54 0.58 0.61 0.64
0.20 0.22 0.21 0.20 0.17 0.22 0.29 0.34 0.41 0.22 0.26 0.44 0.47 0.40 0.43 0.45 0.49 0.55 0.57 0.54 0.56 0.55 0.52 0.50 0.47 0.47 0.48 0.48 0.46 0.44 0.43 0.43 0.46 0.48 0.50 0.50 0.48 0.46 0.46 0.47 0.49 0.52 0.55 0.56
0.18 0.18 0.19 0.20 0.18 0.15 0.29 0.33 0.25 0.32 0.40 0.46 0.50 0.53 0.51 0.54 0.57 0.57 0.55 0.52 0.49 0.47 0.46 0.48 0.45 0.44 0.45 0.46 0.45 0.43 0.41 0.45 0.47 0.49 0.47 0.49 0.51 0.49 0.48 0.47 0.46 0.46 0.49 0.50
0.16 0.20 0.17 0.19 0.17 0.26 0.31 0.30 0.38 0.40 0.39 0.45 0.49 0.53 0.55 0.54 0.51 0.50 0.49 0.46 0.43 0.43 0.46 0.45 0.40 0.39 0.41 0.43 0.44 0.41 0.42 0.44 0.45 0.44 0.43 0.45 0.47 0.48 0.50 0.50 0.48 0.45 0.45 0.45
0.17 0.18 0.15 0.15 0.18 0.18 0.30 0.34 0.40 0.39 0.41 0.48 0.54 0.52 0.54 0.50 0.49 0.46 0.43 0.42 0.42 0.44 0.41 0.41 0.42 0.42 0.42 0.45 0.46 0.43 0.43 0.43 0.42 0.39 0.41 0.43 0.42 0.44 0.47 0.49 0.50 0.49 0.48 0.45
0.15 0.14 0.12 0.12 0.17 0.15 0.27 0.29 0.31 0.33 0.42 0.49 0.53 0.54 0.53 0.48 0.45 0.42 0.44 0.45 0.46 0.44 0.45 0.46 0.46 0.47 0.45 0.44 0.42 0.42 0.40 0.38 0.36 0.35 0.33 0.34 0.38 0.40 0.43 0.46 0.50 0.51 0.52 0.51
0.17 0.14 0.12 0.13 0.14 0.15 0.16 0.21 0.25 0.26 0.33 0.44 0.48 0.52 0.55 0.52 0.43 0.45 0.47 0.47 0.48 0.47 0.48 0.49 0.48 0.45 0.41 0.37 0.36 0.37 0.38 0.36 0.32 0.29 0.30 0.34 0.35 0.37 0.38 0.39 0.43 0.50 0.53 0.52
Wind_Speed
28 31 36 35 37 39 37 38 39 35 29 27 31 36 36 34 35 34 32 32 33 34 32 32 33 34 35 36 36 36 36 36 37 37 37 36 34 33 32 32 31 31 30 29
33 42 37 36 38 40 41 41 45 38 36 35 38 43 42 38 38 39 40 40 39 36 35 35 34 34 36 37 37 38 39 39 39 39 39 38 36 35 34 33 32 32 31 30
40 47 34 39 41 42 42 43 41 40 36 38 40 46 46 42 42 43 45 45 42 40 39 38 37 38 36 38 38 38 40 41 42 41 41 39 37 36 35 34 33 34 33 32
43 47 45 45 47 41 38 45 42 41 40 39 34 40 49 40 40 39 38 36 39 40 39 39 38 38 39 38 38 39 40 41 43 43 43 43 41 39 37 36 35 35 34 33
52 45 40 43 48 43 50 45 41 40 39 39 44 38 53 35 41 37 36 34 36 36 35 35 35 37 39 38 39 40 39 41 43 45 44 43 42 40 39 38 37 36 36 35
52 42 42 41 41 39 37 44 43 41 38 36 51 44 44 46 43 42 37 34 32 29 28 29 30 32 36 37 38 40 40 40 42 44 44 44 43 41 40 40 39 38 38 37
47 49 49 44 43 41 36 35 28 28 32 38 46 40 37 48 33 34 34 29 30 30 30 31 32 34 33 36 37 39 40 40 41 43 45 44 43 42 42 42 41 40 39 39
36 40 49 45 47 43 36 41 32 38 40 40 43 41 46 45 45 44 34 31 30 29 27 28 27 28 30 32 34 35 39 40 41 43 44 44 44 43 43 44 43 42 41 40
38 45 44 39 41 41 44 41 47 44 43 39 35 44 43 43 37 34 35 35 35 33 30 29 26 24 24 26 29 32 34 37 40 42 43 44 44 44 45 45 44 44 43 42
26 27 34 36 36 39 43 41 37 37 37 39 40 45 41 43 41 37 34 34 33 32 31 30 29 27 27 27 28 30 31 33 36 38 39 40 42 43 43 43 44 44 44 43
23 26 30 28 27 34 32 42 41 33 35 33 36 37 41 41 37 37 34 32 30 28 28 26 26 25 25 25 26 27 30 31 32 34 35 37 38 39 40 41 42 42 43 43
22 24 28 34 39 30 30 27 22 17 19 26 35 38 21 27 33 34 34 33 31 28 27 26 25 25 25 25 25 26 28 29 31 32 33 34 35 37 38 39 40 41 42 43
24 22 26 30 30 22 25 29 29 30 27 27 25 23 27 28 27 33 32 31 30 28 26 26 27 26 26 25 25 25 26 27 28 29 31 32 32 34 36 38 40 40 42 43
30 29 29 26 30 30 31 32 34 31 27 26 29 29 25 21 25 18 26 32 31 29 28 29 28 27 26 26 26 25 26 25 26 27 28 29 30 31 33 36 38 39 41 42
28 27 30 34 36 37 39 41 39 39 38 35 35 32 31 27 19 17 21 21 25 26 27 28 28 27 25 24 23 23 23 24 25 27 28 27 29 29 31 33 35 37 39 41
28 29 33 36 35 38 41 41 41 43 41 43 38 41 37 31 24 23 24 20 16 18 21 24 25 25 24 24 25 22 21 22 20 20 21 22 24 25 26 29 30 32 34 38
31 30 30 35 35 40 42 39 41 43 42 39 37 40 36 31 29 27 29 28 26 21 19 22 19 20 20 19 20 21 21 21 21 22 23 23 24 25 27 28 28 31 31 31
32 33 32 35 35 38 38 39 46 44 41 36 38 38 35 32 30 27 29 25 22 20 19 19 18 18 19 18 19 19 20 21 21 23 24 25 26 27 28 29 30 31 33 34
37 35 31 31 33 37 37 33 30 34 42 37 37 33 30 30 31 33 29 26 22 21 18 18 18 18 18 19 19 19 20 21 22 23 25 25 25 28 29 30 31 33 35 37
19 22 27 23 25 25 17 21 22 25 33 32 33 32 28 29 28 26 24 23 21 20 19 18 17 18 18 18 18 19 19 20 21 23 25 26 27 28 30 32 33 34 35 37
15 13 17 24 22 14 17 21 17 15 12 21 26 27 27 26 26 23 23 22 20 20 19 18 17 16 16 16 17 17 16 17 20 23 24 25 27 29 31 33 34 36 37 37
10 10 7 10 12 11 14 10 9 15 16 15 13 17 23 19 19 19 18 19 19 19 18 17 15 14 14 15 16 16 14 16 19 20 21 22 24 27 30 31 33 35 37 38
8 8 11 11 12 15 12 11 14 14 15 13 12 10 15 19 19 18 16 17 17 17 16 14 13 12 12 12 13 12 12 14 16 17 18 20 22 24 27 29 30 31 33 34
9 10 11 12 11 11 10 12 10 11 12 14 13 12 13 15 17 17 16 16 16 15 14 11 11 11 11 10 9 9 10 10 12 13 14 16 18 19 20 22 27 31 32 33
14 14 14 15 13 11 9 9 9 10 10 8 10 9 13 14 15 15 14 13 13 11 11 12 11 10 8 7 6 5 7 9 9 10 12 12 12 13 14 16 18 23 28 31
14 14 16 17 15 15 14 13 12 10 7 7 9 10 10 10 13 13 12 12 11 11 11 11 10 8 7 6 7 7 7 7 7 8 9 9 10 11 12 13 14 16 21 26
Wind_Direction
249 250 248 250 250 258 263 266 267 264 261 256 260 264 263 263 264 260 254 255 258 259 254 251 247 243 240 238 236 235 233 233 230 229 229 230 232 233 235 236 236 234 235 236
253 251 254 257 256 258 259 262 263 266 262 264 267 267 266 261 262 264 263 260 259 257 255 250 247 243 242 240 238 236 234 232 231 231 231 232 233 234 235 236 236 234 235 235
251 258 255 253 256 258 258 259 264 265 265 264 267 270 265 261 263 263 263 261 259 256 254 253 248 244 241 240 240 237 235 233 232 232 231 232 233 235 235 236 235 235 236 237
255 262 259 260 259 256 262 260 263 262 262 261 260 266 268 265 264 262 263 264 258 255 254 253 249 245 241 241 239 238 236 235 233 230 231 231 234 235 236 236 236 237 237 238
255 257 258 258 259 261 261 264 259 262 266 265 260 256 268 267 267 265 268 268 255 258 253 252 248 246 241 242 239 237 236 235 233 230 231 232 234 235 236 236 236 237 238 239
256 258 258 260 264 262 267 263 259 260 261 256 256 255 261 267 266 268 258 259 256 251 255 255 253 249 243 242 239 237 236 235 233 231 232 233 233 234 235 236 237 237 238 238
255 255 256 257 261 261 258 258 257 252 250 254 257 260 253 262 267 264 263 246 252 254 257 255 256 252 247 241 240 239 236 236 233 232 232 234 234 235 236 236 237 237 238 239
250 255 251 251 249 255 249 248 248 252 253 258 258 256 256 259 260 256 258 250 251 251 252 257 256 251 245 241 239 239 237 236 234 233 233 234 236 236 239 238 238 239 239 240
256 252 256 250 247 246 252 251 253 258 261 263 259 261 255 256 250 256 250 248 248 249 252 254 251 247 243 240 240 239 239 237 236 235 235 236 237 238 239 239 239 239 238 240
264 264 258 256 256 250 247 255 251 251 252 254 251 253 257 253 249 249 248 246 248 249 250 251 247 247 246 245 242 241 240 240 237 236 236 237 239 239 239 238 238 238 238 239
261 255 256 266 257 254 258 259 244 252 251 254 254 247 255 257 250 243 244 244 241 245 246 245 244 242 243 243 241 242 241 241 239 237 238 239 239 239 238 238 238 237 237 239
258 266 263 266 267 259 250 254 263 264 277 267 262 253 273 276 250 240 241 240 242 242 242 243 243 241 243 243 243 242 243 242 240 238 239 240 240 239 238 238 237 238 239 240
271 259 270 270 261 249 250 253 259 270 263 268 273 271 275 268 260 233 234 237 236 237 240 242 242 243 244 244 243 244 243 242 240 239 239 240 241 240 240 240 240 240 242 242
255 256 255 258 259 266 269 259 259 258 264 272 263 272 275 271 252 252 237 233 235 239 240 241 242 243 244 246 247 246 244 241 239 240 240 240 241 242 242 242 243 242 243 242
254 255 255 259 262 266 269 268 267 266 262 266 275 269 267 267 267 255 258 248 234 235 243 241 240 241 243 244 245 245 244 243 242 243 242 245 245 245 245 244 244 243 243 241
255 261 265 265 268 265 265 265 265 262 264 269 268 263 265 261 256 247 248 246 241 253 251 239 236 239 242 241 241 243 241 239 239 239 239 241 244 245 245 245 244 244 242 240
264 266 268 269 270 270 265 262 260 263 262 262 263 261 258 251 249 249 246 243 249 245 233 232 233 236 235 236 238 238 239 242 245 245 247 247 249 251 249 249 248 243 241 235
259 260 265 269 272 267 272 265 262 260 260 259 259 258 254 249 247 243 236 233 235 230 225 228 231 233 236 238 243 244 245 246 251 254 255 257 255 256 256 255 252 247 241 239
256 257 260 262 264 271 272 270 275 271 260 255 255 252 248 244 241 243 239 234 231 234 231 231 235 236 240 246 251 253 254 257 256 260 261 259 258 258 258 258 255 251 247 245
264 259 242 249 258 266 284 287 280 278 264 264 255 248 240 233 237 232 228 223 227 230 231 236 240 243 246 250 254 255 255 257 261 263 264 264 261 263 261 259 256 254 250 248
266 261 257 240 249 264 302 292 264 263 277 285 264 244 224 227 230 225 223 222 227 230 233 235 235 237 244 250 253 254 259 266 270 271 272 270 266 265 265 263 259 254 251 248
255 260 263 258 256 255 311 285 273 273 277 288 282 219 217 212 204 206 214 219 222 228 230 228 232 237 246 253 254 259 269 277 280 277 276 277 275 274 270 264 259 254 249 246
256 255 264 250 259 271 269 271 276 282 277 261 266 246 201 197 202 206 209 214 218 220 219 219 228 237 242 248 251 259 277 280 278 282 286 281 282 279 273 263 256 250 246 244
266 269 261 268 260 278 259 271 272 275 278 267 246 234 207 192 194 199 205 208 210 211 219 223 217 217 227 239 254 269 278 281 290 295 291 291 288 282 276 270 259 251 247 245
277 277 266 270 263 276 253 275 288 281 270 264 246 228 218 204 197 197 199 200 203 206 204 203 206 209 219 230 249 265 277 296 297 298 304 303 298 289 284 281 275 255 246 241
273 270 265 262 266 269 267 272 274 279 268 244 232 230 199 200 194 192 190 196 193 191 193 199 205 210 218 237 257 269 278 282 293 309 311 305 307 306 301 297 289 272 252 241